Погода в Шантобе

Казахстан     52°27′12″N   68°10′24″E
темп.,
°C
ветер,
м/с
пор.,
м/с
влажн.,
%
обл.,
%
осадки,
мм/ч
давл.,
гПа
погр.,
м
1 марта, пн
пн100:000юз61196100 2.1 1004648
03:00−1юз61296100 0.9 1004666
06:00−2зюз71395100 1.6 1006602
09:00−4зюз51195100 0.4 1008507
12:00−5з4694100 0.6 1010370
15:00−7зсз459399 0.1 1013342
18:00−10зсз3496100 0.1 1015100
21:00−14сз229794 0.1 101720
2 марта, вт
вт200:00−15з129690 0.1 101822
03:00−15зюз229682 0.1 101840
06:00−15зюз229687 0.3 101841
09:00−15зюз239797 0.1 101775
12:00−13юз359491 0.2 1017296
15:00−11юз4592100 0.1 1016426
18:00−13юз4794100 0.2 1016352
21:00−16юз499699 0.1 1016290
3 марта, ср
ср300:00−18юз5119799 0.1 1017301
03:00−22ююз410100100 0.0 1017226
06:00−19ююз51196100 0.1 1017331
09:00−16ююз61295100 0.3 1015418
12:00−13ююз71393100 0.4 1015466
15:00−9юз81493100 0.4 1013640
18:00−6юз91593100 1.0 1012887
21:00−4юз91594100 0.6 1010898
4 марта, чт
чт400:00−4юз81594100 1.1 1010807
03:00−4юз81495100 0.7 1008741
06:00−3ююз81595100 1.3 1007728
09:00−2ююз101695100 1.3 1005967
12:00−1юз101695100 2.3 10041129
15:00−1юз91494100 0.6 10041120
18:00−2юз81395100 1.2 1005883
21:00−3юз51195100 0.4 1007497
5 марта, пт
пт500:00−7зсз4895100 1.0 1010243
03:00−15з449785 0.0 101254
06:00−16зюз489542 0.0 1014127
09:00−13юз615890 0.0 1015299
12:00−9юз11198917 0.0 1014681
15:00−8юз111991100 0.3 1014790
18:00−6юз111989100 0.5 1015945
21:00−6юз111890100 0.3 1015886